Powrót do katalogu

STARLINK-37471

AktywnyŁącznośćSSO
NORAD 68802·PAYLOAD·🇺🇸 United States

Wystrzelony Apr 23, 2026 z Vandenberg Space Force Base

Loading…

Następne Przeloty (najbliższe 24 godziny)

TLE

ŚwieżeSource: CelesTrak SupGP

Epoka: Sep 14, 2026, 23:10 UTC

1 68802C 26089A   26257.96576389  .00089565  00000+0  27828-2 0  2572
2 68802  97.2846 103.7237 0001838  88.5113 342.1128 15.33364487    17

Śledź STARLINK-37471 w czasie rzeczywistym z AllMySat

Download on the App Store